sat.trackr.live / text

‹ back to catalog

STARLINK-31846

NORAD 60126 · 2024-118P

PAYLOAD ACTIVE UNKNOWN

§ Identity

Operator
Country
US
Launch date
2024-06-24
Launch site
AFWTR
Launch vehicle
Mass (kg)
RCS (m²)

Purposes: comms

External: N2YO · Heavens-Above · Gunter

§ Orbital elements

Epoch: 2026-09-21T05:41:30.109056Z

Period
94.01 min
Inclination
53.1601°
Eccentricity
0.0001383
Mean motion
15.31707772 rev/d
Perigee alt
469.8 km
Apogee alt
471.7 km
Semi-major
6,848.9 km
B*
4.0476e-5
RAAN
197.1418°
Arg perigee
84.2516°
Mean anomaly
275.8643°
Rev number
12,565

§ Raw data

STARLINK-318461 60126U 24118P   26264.23715404  .00000891  00000+0  40476-4 0  99992 60126  53.1601 197.1418 0001383  84.2516 275.8643 15.31707772125659

JSON: /api/v1/satellites/60126 · /tle

For live sub-satellite position, see the globe view (requires WebGL).

§ Visibility from observer

Set your observer location to see the next 7 days of passes ≥ 10°. The values pass through the URL so the page stays shareable.

No JS? Fill the form by hand. The geolocation button needs JavaScript.